Back to catalog

STARLINK-6350

AliveCommunicationsVLEO
NORAD 57226·PAYLOAD·🇺🇸 United States

Launched Jul 7, 2023 from Vandenberg Space Force Base

Loading…

Next Passes (next 24 hours)

TLE

FreshSource: CelesTrak SupGP

Epoch: Sep 14, 2026, 20:41 UTC

1 57226C 23094J   26257.86229167  .00057232  00000+0  20727-2 0  2578
2 57226  43.0048  42.5935 0001989 278.3522 109.5354 15.27552307    12

Track STARLINK-6350 in real time with AllMySat

Download on the App Store